Regional Weather Roundup
Issued by NWS

Home | Current Version | Previous Version | Text Only | Print | Product List | Glossary On
Versions: 1 2 3 4 5 6 7 8 9 10 11 12 13 14 15 16 17 18 19 20 21 22 23 24 25 26 27 28 29 30 31 32 33 34 35 36 37 38 39 40 41 42 43 44 45 46 47 48 49 50
000
ASUS42 KFFC 010203
RWRGA
WEATHER ROUNDUP FOR GEORGIA
NATIONAL WEATHER SERVICE PEACHTREE CITY GA
1000 PM EDT MON AUG 31 2015

NOTE: "FAIR" INDICATES FEW OR NO CLOUDS BELOW 12,000 FEET WITH NO
SIGNIFICANT WEATHER AND/OR OBSTRUCTIONS TO VISIBILITY.

* = USE WITH CAUTION. THE STATIONS MARKED WITH AN ASTERISK MAY NOT
REPORT WEATHER SUCH AS PRECIPITATION, FOG, OR THUNDER AND ARE NOT
QUALITY CONTROLLED BY NWS.

THE REMARK "TC" DENOTES TEMPERATURE READING IN DEGREES CELSIUS.

GAZ001>058-010300-
NORTH GEORGIA

CITY           SKY/WX    TMP DP  RH WIND       PRES   REMARKS
ATLANTA        PTCLDY    75  68  78 CALM      30.11R
ATHENS         CLEAR     74  70  87 CALM      30.11R
CHAMBLEE       CLEAR     72  70  93 SE3       30.11R
PEACHTREE CITY CLEAR     71  70  96 CALM      30.12R FOG
ROME           CLEAR     72  69  90 CALM      30.09R
WEST ATLANTA   CLEAR     72  69  90 CALM      30.10R
GAINESVILLE    CLEAR     74  67  78 CALM      30.14R
CARTERSVILLE   CLEAR     70  69  97 CALM      30.11R


CITY           SKY/WX    TMP DP  RH WIND       PRES   REMARKS
DALTON*        CLEAR     70  70 100 CALM      30.10R
MARIETTA       CLEAR     73  69  87 W3        30.11R
KENNESAW*      CLEAR     72  66  83 CALM      30.12R
BLAIRSVILLE*     N/A     69  59  71 CALM      30.16R
$$

GAZ059>098-102>109-010300-
CENTRAL GEORGIA

CITY           SKY/WX    TMP DP  RH WIND       PRES   REMARKS
AUGUSTA-BUSH   CLEAR     71  70  96 CALM      30.08R
AUGUSTA-DANIEL CLEAR     83  68  60 CALM      30.10R
COLUMBUS       CLEAR     79  69  71 E3        30.08R
MACON          CLEAR     75  71  87 CALM      30.09R
ROBINS AFB     CLEAR     75  72  92 S2        30.08R


CITY           SKY/WX    TMP DP  RH WIND       PRES   REMARKS
LAGRANGE*      CLEAR     75  75 100 CALM      30.10R FOG
SYLVANIA*      CLEAR     74  74 100 CALM      30.10R
MILLEDGEVILLE* CLEAR     73  72  94 CALM      30.10R
$$

GAZ099>101-110>166-010300-
SOUTH GEORGIA

CITY           SKY/WX    TMP DP  RH WIND       PRES   REMARKS
SAVANNAH       PTCLDY    77  73  87 E3        30.09R
VALDOSTA       LGT RAIN  75  72  90 CALM      30.07R
ALMA           CLEAR     75  72  90 CALM      30.08R
ST SIMONS      CLOUDY    81  75  82 CALM      30.08R
FT STEWART     CLEAR     76  73  91 CALM      30.07R
ALBANY         CLEAR     80  72  76 NE3       30.09R
HUNTER AFB     PTCLDY    76  76 100 CALM      30.07R
MOODY AFB      CLEAR     75  71  86 CALM      30.07R
BRUNSWICK      CLOUDY    77  75  94 CALM      30.09R


CITY           SKY/WX    TMP DP  RH WIND       PRES   REMARKS
BAINBRIDGE*    PTCLDY    79  72  78 E3        30.07R
MOULTRIE*      CLEAR     77  72  83 CALM      30.09R
VIDALIA*       CLEAR     73  72  94 CALM      30.10R
WAYCROSS*      MOCLDY    81  78  89 E3        30.08R
DOUGLAS*       CLEAR     81  72  74 E5        30.10R
$$


USA.gov is the U.S. government's official web portal to all federal, state and local government web resources and services.